Location: Cicognara
(44.9500°N, 10.4667°E)
Time: 06:22:05
(UTC+00:00)

Lacrosse 4 Rocket - Pass Details

Date: 20 June 2021
Orbit: 543 x 614 km, 68.0° (Epoch: 28 July)

Event Time Altitude Azimuth Distance (km) Brightness Sun altitude
Rises 23:35:35 0° 342° (NNW) 2,752 6.1 -21.5°
Reaches altitude 10° 23:38:36 10° 5° (N) 1,840 5.2 -21.5°
Maximum altitude 23:41:07 16° 43° (NE) 1,501 4.2 -21.4°
Drops below altitude 10° 23:43:36 10° 81° (E) 1,818 4.1 -21.4°
Sets 23:46:33 0° 104° (ESE) 2,701 4.8 -21.3°
Enters shadow 23:46:39 - 104° (ESE) 2,738 4.8 -21.3°
